KI5QWQ Weather Reports


Display with metric or nautical units.
time (UTC)temp
F
wind
direction
speed
MPH
gust
MPH
rain 1hr
in
rain 24hr
in
rain mn
in
humidity
%
barometer
mb
20260904184002 0 157 4.0 6.0 0.00 0.01 0.01 1017.3
20260904183457 0 190 3.0 5.0 0.00 0.01 0.01 1017.4
20260904182952 0 224 2.0 3.0 0.00 0.01 0.01 1017.3
20260904182448 0 224 2.0 3.0 0.00 0.01 0.01 1017.4
20260904181947 0 211 2.0 4.0 0.00 0.01 0.01 1017.5
20260904181443 0 211 2.0 4.0 0.00 0.01 0.01 1017.5
20260904180938 0 158 2.0 4.0 0.00 0.01 0.01 1017.5
20260904180433 0 211 2.0 3.0 0.00 0.01 0.01 1017.8
20260904175932 0 209 2.0 3.0 0.00 0.01 0.01 1017.9
20260904175432 0 146 6.0 6.0 0.00 0.01 0.01 1018.0
20260904174926 0 260 0.0 2.0 0.00 0.01 0.01 1017.9
20260904174421 0 260 0.0 2.0 0.00 0.01 0.01 1018.1
20260904173918 0 42 0.0 3.0 0.00 0.01 0.01 1018.1
20260904173413 0 196 2.0 3.0 0.00 0.01 0.01 1018.1
20260904172908 0 177 2.0 2.0 0.00 0.01 0.01 1018.1
20260904172402 0 136 4.0 7.0 0.00 0.01 0.01 1018.2
20260904171857 0 178 3.0 7.0 0.00 0.01 0.01 1018.1
20260904171352 0 208 1.0 2.0 0.00 0.01 0.01 1018.3
20260904170849 0 162 5.0 5.0 0.00 0.01 0.01 1018.3
20260904170344 0 162 5.0 5.0 0.00 0.01 0.01 1018.3
20260904165838 0 273 2.0 3.0 0.00 0.01 0.01 1018.3
20260904165337 0 218 3.0 7.0 0.00 0.01 0.01 1018.2
20260904164827 0 190 2.0 7.0 0.00 0.01 0.01 1018.2
20260904164326 0 141 4.0 5.0 0.00 0.01 0.01 1018.2
20260904163824 0 182 4.0 6.0 0.00 0.01 0.01 1018.2
20260904163323 0 204 2.0 5.0 0.00 0.01 0.01 1018.2
20260904162822 0 208 2.0 3.0 0.00 0.01 0.01 1018.2
20260904162318 0 208 2.0 3.0 0.00 0.01 0.01 1018.2
20260904161814 0 212 2.0 3.0 0.00 0.01 0.01 1018.2
20260904161314 0 212 2.0 3.0 0.00 0.01 0.01 1018.3
20260904160809 0 227 2.0 3.0 0.00 0.01 0.01 1018.1
20260904160304 0 227 2.0 3.0 0.00 0.01 0.01 1018.1
20260904155758 0 227 2.0 3.0 0.00 0.01 0.01 1018.2
20260904155259 0 227 2.0 3.0 0.00 0.01 0.01 1018.2
20260904154757 0 227 2.0 3.0 0.00 0.01 0.01 1018.2
20260904154252 0 227 2.0 3.0 0.00 0.01 0.01 1018.2
20260904153748 0 221 2.0 4.0 0.00 0.01 0.01 1018.1
20260904153243 0 236 2.0 3.0 0.00 0.01 0.01 1018.2
20260904152739 0 200 3.0 4.0 0.00 0.01 0.01 1018.3
20260904152234 0 200 3.0 4.0 0.00 0.01 0.01 1018.0
20260904151729 0 200 3.0 4.0 0.00 0.01 0.01 1018.1
20260904151228 0 238 3.0 4.0 0.05 0.01 0.01 1018.0
20260904150724 0 245 2.0 3.0 0.05 0.01 0.01 1017.9
20260904150219 0 247 2.0 4.0 0.00 0.00 0.00 1017.9
20260904145717 0 247 2.0 4.0 0.00 0.00 0.00 1018.0
20260904145213 0 247 2.0 4.0 0.00 0.00 0.00 1018.0
20260904144708 0 247 2.0 4.0 0.00 0.00 0.00 1018.0
20260904144204 0 216 3.0 3.0 0.00 0.00 0.00 1018.2
20260904143659 0 216 3.0 3.0 0.00 0.00 0.00 1017.9
20260904143156 0 216 3.0 3.0 0.00 0.00 0.00 1018.0
20260904142652 0 216 3.0 3.0 0.00 0.00 0.00 1017.9
20260904142148 0 216 3.0 3.0 0.00 0.00 0.00 1018.1
20260904141642 0 224 1.0 2.0 0.00 0.00 0.00 1017.9
20260904141138 0 224 1.0 2.0 0.00 0.00 0.00 1017.9
20260904140633 0 224 1.0 2.0 0.00 0.00 0.00 1017.6
20260904140127 0 224 1.0 2.0 0.00 0.00 0.00 1017.9
20260904135621 0 225 3.0 4.0 0.00 0.00 0.00 1017.9
20260904135117 0 225 3.0 4.0 0.00 0.00 0.00 1018.0
20260904134613 0 255 2.0 3.0 0.00 0.00 0.00 1018.0
20260904134112 0 255 2.0 3.0 0.00 0.00 0.00 1017.6
20260904133607 0 249 0.0 1.0 0.00 0.00 0.00 1017.5
20260904133103 0 220 2.0 3.0 0.00 0.00 0.00 1017.6
20260904132602 0 231 1.0 2.0 0.00 0.00 0.00 1017.3
20260904132057 0 231 1.0 2.0 0.00 0.00 0.00 1017.5
20260904131551 0 231 1.0 2.0 0.00 0.00 0.00 1017.5
20260904131047 0 231 1.0 2.0 0.00 0.00 0.00 1017.8
20260904130546 0 231 2.0 2.0 0.00 0.00 0.00 1017.6
20260904130041 0 244 1.0 2.0 0.00 0.00 0.00 1017.5
20260904125538 0 230 0.0 1.0 0.00 0.00 0.00 1017.9
20260904125032 0 227 1.0 1.0 0.00 0.00 0.00 1017.8
20260904124528 0 242 0.0 1.0 0.00 0.00 0.00 1017.6
20260904124023 0 253 1.0 2.0 0.00 0.00 0.00 1017.8
20260904123523 0 220 0.0 1.0 0.00 0.00 0.00 1017.9
20260904123018 0 220 0.0 1.0 0.00 0.00 0.00 1017.9
20260904122513 0 236 1.0 2.0 0.00 0.00 0.00 1017.9
20260904122008 0 175 2.0 2.0 0.00 0.00 0.00 1017.8
20260904121503 0 259 0.0 2.0 0.00 0.00 0.00 1017.6
20260904120959 0 187 1.0 2.0 0.00 0.00 0.00 1017.6
20260904120455 0 171 2.0 2.0 0.00 0.00 0.00 1017.4
20260904115949 0 180 1.0 2.0 0.00 0.00 0.00 1017.4
20260904115446 0 170 3.0 3.0 0.00 0.00 0.00 1017.1
20260904114945 0 125 3.0 4.0 0.00 0.00 0.00 1017.2
20260904114440 0 176 1.0 3.0 0.00 0.00 0.00 1017.1
20260904113936 0 202 2.0 3.0 0.00 0.00 0.00 1017.1
20260904113434 0 133 0.0 3.0 0.00 0.00 0.00 1016.9
20260904112928 0 138 5.0 6.0 0.00 0.00 0.00 1016.7
20260904112424 0 147 1.0 3.0 0.00 0.00 0.00 1016.7
20260904111920 0 213 0.0 2.0 0.00 0.00 0.00 1016.6
20260904111415 0 178 2.0 3.0 0.00 0.00 0.00 1016.6
20260904110911 0 106 3.0 4.0 0.00 0.00 0.00 1016.6
20260904110409 0 188 1.0 2.0 0.00 0.00 0.00 1016.6
20260904105905 0 184 2.0 4.0 0.00 0.00 0.00 1016.6
20260904105400 0 165 2.0 5.0 0.00 0.00 0.00 1016.6
20260904104855 0 202 0.0 1.0 0.00 0.00 0.00 1016.4
20260904104350 0 147 2.0 3.0 0.00 0.00 0.00 1016.6
20260904103847 0 207 2.0 5.0 0.00 0.00 0.00 1016.5
20260904103347 0 168 1.0 4.0 0.00 0.00 0.00 1016.4
20260904102843 0 217 0.0 2.0 0.00 0.00 0.00 1016.4
20260904102338 0 269 0.0 4.0 0.00 0.00 0.00 1016.6
20260904101834 0 161 2.0 3.0 0.00 0.00 0.00 1016.4
20260904101330 0 217 0.0 1.0 0.00 0.00 0.00 1016.4
20260904100825 0 209 0.0 3.0 0.00 0.00 0.00 1016.3
20260904100321 0 161 3.0 7.0 0.00 0.00 0.00 1016.3
20260904095816 0 206 2.0 3.0 0.00 0.00 0.00 1016.0
20260904095310 0 214 1.0 3.0 0.00 0.00 0.00 1016.2
20260904094806 0 215 1.0 4.0 0.00 0.00 0.00 1016.0
20260904094300 0 158 1.0 3.0 0.00 0.00 0.00 1016.0
20260904093756 0 197 2.0 3.0 0.00 0.00 0.00 1016.2
20260904093251 0 227 2.0 3.0 0.00 0.00 0.00 1016.2
20260904092746 0 180 1.0 4.0 0.00 0.00 0.00 1016.1
20260904092243 0 192 2.0 5.0 0.00 0.00 0.00 1016.1
20260904091739 0 209 0.0 3.0 0.00 0.00 0.00 1016.1
20260904091233 0 176 3.0 4.0 0.00 0.00 0.00 1016.1
20260904090729 0 220 2.0 4.0 0.00 0.00 0.00 1016.0
20260904090225 0 117 2.0 3.0 0.00 0.00 0.00 1016.1
20260904085725 0 196 2.0 3.0 0.00 0.00 0.00 1016.1
20260904085220 0 238 2.0 3.0 0.00 0.00 0.00 1016.3
20260904084714 0 195 3.0 4.0 0.00 0.00 0.00 1016.3
20260904084211 0 191 0.0 2.0 0.00 0.00 0.00 1016.2
20260904083707 0 190 0.0 3.0 0.00 0.00 0.00 1016.2
20260904083204 0 217 2.0 3.0 0.00 0.00 0.00 1016.2
20260904082703 0 219 2.0 4.0 0.00 0.00 0.00 1016.3
20260904082158 0 187 1.0 3.0 0.00 0.00 0.00 1016.1
20260904081654 0 136 2.0 4.0 0.00 0.00 0.00 1016.5
20260904081149 0 185 2.0 4.0 0.00 0.00 0.00 1016.4
20260904080644 0 188 0.0 3.0 0.00 0.00 0.00 1016.4
20260904080140 0 201 2.0 4.0 0.00 0.00 0.00 1016.3
20260904075637 0 240 2.0 6.0 0.00 0.00 0.00 1016.0
20260904075131 0 217 3.0 3.0 0.00 0.00 0.00 1016.0
20260904074625 0 218 2.0 9.0 0.00 0.00 0.00 1016.1
20260904074120 0 226 1.0 8.0 0.00 0.00 0.00 1016.2
20260904073614 0 219 3.0 5.0 0.00 0.00 0.00 1016.3
20260904073111 0 203 3.0 7.0 0.00 0.00 0.00 1016.2
20260904072606 0 167 0.0 3.0 0.00 0.00 0.00 1016.2
20260904072101 0 158 2.0 3.0 0.00 0.00 0.00 1016.3
20260904071557 0 214 0.0 5.0 0.00 0.00 0.00 1016.5
20260904071052 0 220 2.0 3.0 0.00 0.00 0.00 1016.5
20260904070550 0 148 5.0 5.0 0.00 0.00 0.00 1016.5
20260904070046 0 215 3.0 6.0 0.00 0.00 0.00 1016.4
20260904065540 0 191 2.0 3.0 0.00 0.00 0.00 1016.7
20260904065037 0 139 3.0 5.0 0.00 0.00 0.00 1016.5
20260904064533 0 208 3.0 6.0 0.00 0.00 0.00 1016.5
20260904064026 0 176 2.0 4.0 0.00 0.00 0.00 1016.6
20260904063523 0 207 2.0 4.0 0.00 0.00 0.00 1016.7
20260904063018 0 163 3.0 5.0 0.00 0.00 0.00 1016.4
20260904062514 0 219 2.0 3.0 0.00 0.00 0.00 1016.5
20260904062010 0 191 1.0 6.0 0.00 0.00 0.00 1016.5
20260904061505 0 235 1.0 3.0 0.00 0.00 0.00 1016.5
20260904061002 0 226 1.0 3.0 0.00 0.00 0.00 1016.5
20260904060457 0 210 2.0 2.0 0.00 0.00 0.00 1016.6
20260904055953 0 140 4.0 7.0 0.00 0.00 0.00 1016.4
20260904055448 0 196 1.0 6.0 0.00 0.00 0.00 1016.4
20260904054944 0 262 2.0 5.0 0.00 0.00 0.00 1016.4
20260904054439 0 224 0.0 3.0 0.00 0.00 0.00 1016.4
20260904053935 0 218 1.0 3.0 0.00 0.00 0.00 1016.4
20260904053434 0 279 2.0 5.0 0.00 0.00 0.00 1016.4
20260904052930 0 205 4.0 8.0 0.00 0.00 0.00 1016.6
20260904052426 0 137 2.0 5.0 0.00 0.00 0.00 1016.3
20260904051922 0 189 2.0 8.0 0.00 0.00 0.00 1016.4
20260904051418 0 160 2.0 7.0 0.00 0.00 0.00 1016.3
20260904050912 0 141 2.0 5.0 0.00 0.00 0.00 1016.4
20260904050409 0 188 2.0 7.0 0.00 0.00 0.00 1016.3
20260904045908 0 202 4.0 7.0 0.00 0.00 0.00 1016.4
20260904045404 0 173 3.0 6.0 0.00 0.00 0.00 1016.3
20260904044903 0 196 2.0 6.0 0.00 0.00 0.00 1016.2
20260904044400 0 154 3.0 6.0 0.00 0.00 0.00 1016.3
20260904043856 0 206 2.0 5.0 0.00 0.00 0.00 1016.3
20260904043352 0 181 2.0 4.0 0.00 0.00 0.00 1016.4
20260904042848 0 179 1.0 4.0 0.00 0.00 0.00 1016.4
20260904042343 0 184 2.0 4.0 0.00 0.00 0.00 1016.4
20260904041838 0 201 3.0 4.0 0.00 0.00 0.00 1016.3
20260904041334 0 212 2.0 3.0 0.00 0.00 0.00 1016.2
20260904040830 0 166 3.0 7.0 0.00 0.00 0.00 1016.2
20260904040325 0 156 6.0 10.0 0.00 0.00 0.00 1016.3
20260904035821 0 173 2.0 3.0 0.00 0.00 0.00 1016.4
20260904035317 0 182 3.0 4.0 0.00 0.00 0.00 1016.4
20260904034815 0 195 2.0 3.0 0.00 0.00 0.00 1016.0
20260904034311 0 166 3.0 5.0 0.00 0.00 0.00 1016.0
20260904033807 0 219 2.0 5.0 0.00 0.00 0.00 1016.0
20260904033304 0 143 3.0 8.0 0.00 0.00 0.00 1016.0
20260904032759 0 143 3.0 8.0 0.00 0.00 0.00 1016.1
20260904032259 0 200 4.0 4.0 0.00 0.00 0.00 1015.9
20260904031753 0 125 5.0 7.0 0.00 0.00 0.00 1016.0
20260904031249 0 160 1.0 5.0 0.00 0.00 0.00 1015.8
20260904030744 0 186 3.0 3.0 0.00 0.00 0.00 1015.8
20260904030239 0 174 5.0 7.0 0.00 0.00 0.00 1015.8
20260904025736 0 195 2.0 3.0 0.00 0.00 0.00 1015.8
20260904025230 0 190 2.0 3.0 0.00 0.00 0.00 1015.8
20260904024720 0 177 3.0 5.0 0.00 0.00 0.00 1015.8
20260904024216 0 119 2.0 6.0 0.00 0.00 0.00 1015.7
20260904023712 0 155 2.0 3.0 0.00 0.00 0.00 1015.7
20260904023207 0 186 5.0 9.0 0.00 0.00 0.00 1015.5
20260904022701 0 165 2.0 2.0 0.00 0.00 0.00 1015.5
20260904022158 0 135 2.0 4.0 0.00 0.00 0.00 1015.6
20260904021654 0 199 2.0 4.0 0.00 0.00 0.00 1015.0
20260904021148 0 202 1.0 3.0 0.00 0.00 0.00 1015.0
20260904020645 0 168 2.0 4.0 0.00 0.00 0.00 1015.0
20260904020139 0 139 2.0 5.0 0.00 0.00 0.00 1015.0
20260904015638 0 139 2.0 5.0 0.00 0.00 0.00 1015.0
20260904015137 0 171 2.0 5.0 0.00 0.00 0.00 1015.0
20260904014636 0 211 2.0 7.0 0.00 0.00 0.00 1014.9
20260904014132 0 156 3.0 7.0 0.00 0.00 0.00 1014.9
20260904013629 0 174 3.0 8.0 0.00 0.00 0.00 1015.0
20260904013124 0 157 4.0 8.0 0.00 0.00 0.00 1015.0
20260904012620 0 191 4.0 8.0 0.00 0.00 0.00 1015.0
20260904012119 0 203 0.0 3.0 0.00 0.00 0.00 1014.8
20260904011618 0 183 2.0 3.0 0.00 0.00 0.00 1014.8
20260904011114 0 139 3.0 4.0 0.00 0.00 0.00 1014.8
20260904010609 0 152 3.0 5.0 0.00 0.00 0.00 1014.7
20260904010106 0 77 0.0 7.0 0.00 0.00 0.00 1014.7
20260904005600 0 205 1.0 10.0 0.00 0.00 0.00 1014.5
20260904005055 0 132 4.0 5.0 0.00 0.00 0.00 1014.5
20260904004551 0 182 3.0 9.0 0.00 0.00 0.00 1014.8
20260904004046 0 144 3.0 5.0 0.00 0.00 0.00 1014.7
20260904003542 0 173 0.0 7.0 0.00 0.00 0.00 1014.6
20260904003038 0 180 3.0 9.0 0.00 0.00 0.00 1014.6
20260904002533 0 189 3.0 13.0 0.00 0.00 0.00 1014.6
20260904002033 0 185 2.0 8.0 0.00 0.00 0.00 1014.4
20260904001529 0 168 2.0 8.0 0.00 0.00 0.00 1014.6
20260904001028 0 190 2.0 11.0 0.00 0.00 0.00 1014.5
20260904000527 0 194 4.0 9.0 0.00 0.00 0.00 1014.4
20260904000024 0 187 3.0 6.0 0.00 0.00 0.00 1014.3
20260903235518 0 165 2.0 8.0 0.00 0.00 0.00 1014.5
20260903235014 0 186 4.0 9.0 0.00 0.00 0.00 1014.4
20260903234509 0 169 3.0 9.0 0.00 0.00 0.00 1014.6
20260903234005 0 143 2.0 9.0 0.00 0.00 0.00 1014.3
20260903233501 0 186 3.0 8.0 0.00 0.00 0.00 1014.2
20260903232955 0 133 6.0 10.0 0.00 0.00 0.00 1014.1
20260903232451 0 196 3.0 11.0 0.00 0.00 0.00 1014.1
20260903231950 0 160 4.0 9.0 0.00 0.00 0.00 1014.2
20260903231445 0 179 3.0 13.0 0.00 0.00 0.00 1014.2
20260903230940 0 163 1.0 10.0 0.00 0.00 0.00 1013.9
20260903230436 0 117 5.0 8.0 0.00 0.00 0.00 1014.0
20260903225932 0 191 4.0 12.0 0.00 0.00 0.00 1014.0
20260903225427 0 158 2.0 8.0 0.00 0.00 0.00 1013.8
20260903224924 0 156 4.0 5.0 0.00 0.00 0.00 1013.6
20260903224419 0 171 3.0 6.0 0.00 0.00 0.00 1013.6
20260903223915 0 187 4.0 8.0 0.00 0.00 0.00 1013.6
20260903223414 0 128 4.0 4.0 0.00 0.00 0.00 1013.7
20260903222913 0 232 4.0 6.0 0.00 0.00 0.00 1013.6
20260903222409 0 165 2.0 3.0 0.00 0.00 0.00 1013.8
20260903221903 0 180 3.0 5.0 0.00 0.00 0.00 1013.7
20260903221401 0 162 4.0 9.0 0.00 0.00 0.00 1013.7
20260903220900 0 114 2.0 7.0 0.00 0.00 0.00 1013.6
20260903220349 0 128 4.0 7.0 0.00 0.00 0.00 1013.6
20260903215847 0 128 4.0 7.0 0.00 0.00 0.00 1013.6
20260903215343 0 145 2.0 4.0 0.00 0.00 0.00 1013.6
20260903214841 0 145 2.0 4.0 0.00 0.00 0.00 1013.6
20260903214332 0 145 2.0 4.0 0.00 0.00 0.00 1013.6
20260903213826 0 166 4.0 8.0 0.00 0.00 0.00 1013.8
20260903213321 0 180 4.0 5.0 0.00 0.00 0.00 1013.8
20260903212817 0 193 4.0 5.0 0.00 0.00 0.00 1013.8
20260903212314 0 193 4.0 5.0 0.00 0.00 0.00 1013.8
20260903211813 0 193 4.0 5.0 0.00 0.00 0.00 1013.8
20260903211309 0 193 4.0 5.0 0.00 0.00 0.00 1013.8
20260903210805 0 193 4.0 5.0 0.00 0.00 0.00 1013.9
20260903210300 0 193 4.0 5.0 0.00 0.00 0.00 1013.9
20260903205800 0 193 2.0 4.0 0.00 0.00 0.00 1014.0
20260903205300 0 193 2.0 4.0 0.00 0.00 0.00 1014.0
20260903204800 0 193 2.0 4.0 0.00 0.00 0.00 1014.2
20260903204256 0 193 2.0 4.0 0.00 0.00 0.00 1014.0
20260903203751 0 193 2.0 4.0 0.00 0.00 0.00 1014.2
20260903203247 0 216 0.0 3.0 0.00 0.00 0.00 1014.5
20260903202745 0 216 0.0 3.0 0.00 0.00 0.00 1014.6
20260903202243 0 216 0.0 3.0 0.00 0.00 0.00 1014.5
20260903201741 0 216 0.0 3.0 0.00 0.00 0.00 1014.5
20260903201237 0 216 0.0 3.0 0.00 0.00 0.00 1014.8
20260903200735 0 216 0.0 3.0 0.00 0.00 0.00 1014.7
20260903200231 0 216 0.0 3.0 0.00 0.00 0.00 1014.8
20260903195726 0 216 0.0 3.0 0.00 0.00 0.00 1014.8
20260903195223 0 216 0.0 3.0 0.00 0.00 0.00 1014.8
20260903194722 0 209 3.0 5.0 0.00 0.00 0.00 1014.8
20260903194218 0 186 2.0 3.0 0.00 0.00 0.00 1014.8
20260903193713 0 228 2.0 3.0 0.00 0.00 0.00 1015.1
20260903193208 0 166 3.0 5.0 0.00 0.00 0.00 1015.0
20260903192705 0 166 3.0 5.0 0.00 0.00 0.00 1015.1
20260903192200 0 224 3.0 4.0 0.00 0.00 0.00 1015.2
20260903191656 0 230 1.0 3.0 0.00 0.00 0.00 1015.4
20260903191156 0 230 1.0 5.0 0.00 0.00 0.00 1015.4
20260903190651 0 190 2.0 3.0 0.00 0.00 0.00 1015.4
20260903190145 0 190 2.0 3.0 0.00 0.00 0.00 1015.6
20260903185640 0 190 2.0 3.0 0.00 0.00 0.00 1015.6
20260903185135 0 190 2.0 3.0 0.00 0.00 0.00 1015.6
20260903184632 0 190 2.0 3.0 0.00 0.00 0.00 1015.6